Tracking 32941 objects as of 15-Jan-2026
HD Live streaming from Space Station
objects crossing your sky now

CZ-3A R/B

Track CZ-3A R/B now!


NORAD ID: 40368
Int'l Code: 2014-090B
Perigee: 303.0 km
Apogee: 36,014.9 km
Inclination: 24.4 °
Period: 637.2 minutes
Semi major axis: 24529 km
RCS: Unknown
Launch date: December 31, 2014
Source: People's Republic of China (PRC)
Launch site: Xichang Space Center, China (XSC)

Note: This is a ROCKET BODY
Your satellite tracking list
Your tracking list is empty




NASA's NSSDC Master Catalog

Two Line Element Set (TLE):
1 40368U 14090B   26014.58925550  .00001338  00000-0  88947-3 0  9991
2 40368  24.4029  95.6375 7279227 145.0793 297.3192  2.25973635 88858
Source of the keplerian elements: AFSPC